Location: Santa Barbara
(34.4500°N, 119.7700°W)
Time: 20:50:33
(UTC-08:00)

Envisat - Pass Details

Date: 23 October 2019
Orbit: 764 x 766 km, 98.1° (Epoch: 21 November)

Event Time Altitude Azimuth Distance (km) Brightness Sun altitude
Rises 20:16:02 0° 205° (SSW) 3,218 6.5 -25.6°
Reaches altitude 10° 20:19:04 10° 224° (SW) 2,296 5.9 -26.2°
Maximum altitude 20:22:26 18° 266° (W) 1,821 5.7 -26.9°
Drops below altitude 10° 20:25:49 10° 308° (NW) 2,306 6.2 -27.6°
Sets 20:28:53 0° 328° (NNW) 3,237 6.7 -28.2°
